This demonstration page uses our WeatherBlox Daily Observations layout. Learn more.

Left ArrowRight Arrow

39.95238, -75.16362

Hourly Observations for March 9, 2021

Temp ( °F °C ) Dew Point ( °F °C ) Humidity (%) Winds ( mph kmh ) Pressure ( in mb ) Visibility ( mi km ) Precip ( " mm )
12:54 am 00:54 Partly Cloudy 39 3.9 17 -8.3 41 41 SW 8 13 30.39 1029 10 16 0.00 0.00
1:54 am 01:54 Partly Cloudy 39 3.9 18 -7.8 43 43 SW 10 17 30.39 1029 10 16 0.00 0.00
2:54 am 02:54 Mostly Cloudy 38 3.3 19 -7.2 46 46 SW 9 15 30.36 1028 10 16 0.00 0.00
3:54 am 03:54 Mostly Cloudy 39 3.9 22 -5.6 50 50 SW 7 11 30.35 1028 10 16 0.00 0.00
4:54 am 04:54 Mostly Cloudy 38 3.3 21 -6.1 51 51 WSW 9 15 30.35 1028 10 16 0.00 0.00
5:54 am 05:54 Mostly Cloudy 39 3.9 22 -5.6 50 50 WSW 10 17 30.36 1028 10 16 0.00 0.00
6:54 am 06:54 Cloudy 40 4.4 24 -4.4 53 53 SW 12 19 30.36 1028 10 16 0.00 0.00
7:54 am 07:54 Mostly Cloudy 42 5.6 24 -4.4 49 49 SW 14 22 30.36 1028 10 16 0.00 0.00
8:54 am 08:54 Partly Cloudy 46 7.8 24 -4.4 42 42 SW 13 20 30.37 1028 10 16 0.00 0.00
9:54 am 09:54 Mostly Sunny 51 10.6 24 -4.4 35 35 SW 12 19 30.36 1028 10 16 0.00 0.00
10:54 am 10:54 Partly Cloudy 58 14.4 25 -3.9 28 28 WSW 15 24 30.35 1028 10 16 0.00 0.00
11:54 am 11:54 Mostly Cloudy 62 16.7 27 -2.8 26 26 SSW 12 19 30.33 1027 10 16 0.00 0.00
12:54 pm 12:54 Mostly Cloudy 65 18.3 31 -0.6 28 28 WSW 16 26 30.31 1026 10 16 0.00 0.00
1:54 pm 13:54 Mostly Cloudy 66 18.9 32 0 28 28 WNW 13 20 30.29 1026 10 16 0.00 0.00
2:54 pm 14:54 Mostly Cloudy 67 19.4 32 0 27 27 WSW 13 20 30.29 1026 10 16 0.00 0.00
3:54 pm 15:54 Mostly Cloudy 68 20 31 -0.6 25 25 WNW 14 22 30.29 1026 10 16 0.00 0.00
4:54 pm 16:54 Mostly Cloudy 67 19.4 31 -0.6 26 26 NW 12 19 30.30 1026 10 16 0.00 0.00
5:54 pm 17:54 Mostly Cloudy 62 16.7 31 -0.6 31 31 N 8 13 30.32 1027 10 16 0.00 0.00
6:54 pm 18:54 Mostly Cloudy 58 14.4 32 0 38 38 NE 9 15 30.35 1028 10 16 0.00 0.00
7:54 pm 19:54 Mostly Cloudy 56 13.3 29 -1.7 36 36 NE 3 6 30.37 1028 10 16 0.00 0.00
8:54 pm 20:54 Mostly Cloudy 52 11.1 31 -0.6 45 45 E 3 6 30.39 1029 10 16 0.00 0.00
9:54 pm 21:54 Partly Cloudy 51 10.6 30 -1.1 44 44 Calm 30.40 1030 10 16 0.00 0.00
10:54 pm 22:54 Mostly Clear 51 10.6 29 -1.7 43 43 E 7 11 30.41 1030 10 16 0.00 0.00
11:54 pm 23:54 Clear 47 8.3 29 -1.7 50 50 ENE 5 7 30.42 1030 10 16 0.00 0.00

Powered by AerisWeather